Location: Poughquag
(41.6090°N, 73.6820°W)
Time: 02:17:12
(UTC-05:00)

Vanguard 3 - All Passes

Search period start: 17 February 2020 00:00
Search period end: 27 February 2020 00:00
Orbit: 508 x 3263 km, 33.3° (Epoch: 16 February)

Date Brightness Start Highest point End Pass type
(mag) Time Alt. Az. Time Alt. Az. Time Alt. Az.
17 Feb - 08:39:03 10° SE 08:39:42 10° SE 08:40:23 10° SE daylight
17 Feb - 10:43:20 10° SW 10:49:53 39° SSE 11:00:56 10° E daylight
17 Feb - 12:53:16 10° WSW 13:02:26 59° S 13:18:17 10° ESE daylight
17 Feb - 15:04:48 10° W 15:16:44 50° SSW 15:34:35 10° SE daylight
17 Feb - 17:18:43 10° W 17:31:28 30° SSW 17:46:52 10° SSE daylight
18 Feb - 09:31:26 10° SSW 09:36:19 24° SE 09:43:35 10° E daylight
18 Feb - 11:40:09 10° WSW 11:47:38 52° SSE 12:00:51 10° E daylight
18 Feb - 13:50:53 10° W 14:01:03 55° S 14:17:49 10° ESE daylight
18 Feb - 16:03:18 10° W 16:15:35 38° SSW 16:32:22 10° SSE daylight
18 Feb - 18:20:32 10° WSW 18:29:55 17° SW 18:40:14 10° S visible
19 Feb - 08:21:58 10° SSE 08:23:16 11° SE 08:24:42 10° ESE daylight
19 Feb - 10:27:29 10° SW 10:33:30 40° SSE 10:43:38 10° E daylight
19 Feb - 12:37:27 10° WSW 12:45:51 56° S 13:00:36 10° ESE daylight
19 Feb - 14:48:51 10° W 14:59:47 46° SSW 15:16:35 10° SE daylight
19 Feb - 17:02:54 10° W 17:14:15 25° SW 17:28:17 10° SSE daylight
20 Feb - 09:15:29 10° SSW 09:19:59 25° SSE 09:26:39 10° E daylight
20 Feb - 11:24:23 10° WSW 11:31:14 51° S 11:43:22 10° E daylight
20 Feb - 13:35:02 10° W 13:44:20 51° S 13:59:57 10° ESE daylight
20 Feb - 15:47:25 10° W 15:58:32 34° SSW 16:14:01 10° SSE daylight
20 Feb - 18:06:09 10° WSW 18:12:45 13° SW 18:19:57 10° SSW visible
21 Feb - 08:05:21 10° SSE 08:06:56 11° SE 08:08:41 10° ESE daylight
21 Feb - 10:11:43 10° SW 10:17:13 40° SSE 10:26:26 10° E daylight
21 Feb - 12:21:41 10° WSW 12:29:23 53° S 12:42:56 10° ESE daylight
21 Feb - 14:33:01 10° W 14:42:58 41° SSW 14:58:27 10° SE daylight
21 Feb - 16:47:26 10° WSW 16:57:11 21° SW 17:09:16 10° S daylight
22 Feb - 08:59:35 10° SSW 09:03:45 25° SSE 09:09:50 10° E daylight
22 Feb - 11:08:41 10° WSW 11:14:56 49° S 11:25:57 10° ESE daylight
22 Feb - 13:19:17 10° W 13:27:45 46° SSW 13:42:03 10° SE daylight
22 Feb - 15:31:45 10° W 15:41:38 29° SSW 15:55:27 10° SSE daylight
23 Feb - 07:48:55 10° SSE 07:50:40 12° SE 07:52:38 10° ESE daylight
23 Feb - 09:56:00 10° SW 10:01:02 39° SSE 10:09:20 10° E daylight
23 Feb - 12:06:00 10° WSW 12:13:00 49° S 12:25:18 10° ESE daylight
23 Feb - 14:17:19 10° W 14:26:17 35° SSW 14:40:12 10° SE daylight
23 Feb - 16:32:29 10° WSW 16:40:16 17° SW 16:49:42 10° S daylight
24 Feb - 08:43:45 10° SSW 08:47:36 25° SSE 08:53:07 10° E daylight
24 Feb - 10:53:02 10° WSW 10:58:45 47° S 11:08:38 10° ESE daylight
24 Feb - 13:03:37 10° W 13:11:17 41° SSW 13:24:07 10° SE daylight
24 Feb - 15:16:20 10° WSW 15:24:52 24° SSW 15:36:37 10° SSE daylight
25 Feb - 07:32:37 10° S 07:34:29 13° SE 07:36:37 10° ESE daylight
25 Feb - 09:40:19 10° SW 09:44:56 38° SSE 09:52:22 10° ESE daylight
25 Feb - 11:50:22 10° WSW 11:56:44 44° S 12:07:43 10° ESE daylight
25 Feb - 14:01:47 10° WSW 14:09:43 30° SSW 14:21:50 10° SSE daylight
25 Feb - 16:18:39 10° SW 16:23:29 12° SW 16:29:00 10° SSW daylight
26 Feb - 08:27:57 10° SW 08:31:32 25° SSE 08:36:31 10° ESE daylight
26 Feb - 10:37:24 10° WSW 10:42:37 43° S 10:51:24 10° ESE daylight
26 Feb - 12:48:03 10° WSW 12:54:56 35° SSW 13:06:10 10° SE daylight
26 Feb - 15:01:18 10° WSW 15:08:15 19° SSW 15:17:27 10° S daylight
